Regional Weather Roundup
Issued by NWS Kansas City/Pleasant Hill, MO

Home | Current Version | Previous Version | Text Only | Print | Product List | Glossary On
Versions: 1 2 3 4 5 6 7 8 9 10 11 12 13 14 15 16 17 18 19 20 21 22 23 24 25 26 27
000
ASUS43 KEAX 260010
RWREAX

WEATHER ROUNDUP FOR EASTERN KANSAS AND NORTHWEST MISSOURI
NATIONAL WEATHER SERVICE KANSAS CITY/PLEASANT HILL MO
700 PM CDT TUE APR 25 2017

KSZ040-057-103>105-MOZ028-029-037-043-260100-
...KANSAS CITY METROPOLITAN AREA...

CITY           SKY/WX    TMP DP  RH WIND       PRES   REMARKS
K.C. INTL      CLOUDY    68  57  68 NW6       29.43R
6HR MIN TEMP:  68; 6HR MAX TEMP:  72;

K.C. DOWNTOWN  CLOUDY    72  58  61 SW3       29.42R
6HR MIN TEMP:  72; 6HR MAX TEMP:  75;

LEES SUMMIT    CLOUDY    72  58  61 SW8       29.43S
6HR MIN TEMP:  72; 6HR MAX TEMP:  75;

OLATHE - IXD   CLOUDY    70  58  65 SE3       29.42F
6HR MIN TEMP:  70; 6HR MAX TEMP:  73;

OLATHE - OJC   CLOUDY    68  60  75 S3        29.42F
6HR MIN TEMP:  68; 6HR MAX TEMP:  72;

LAWRENCE       CLOUDY    70  58  65 N7        29.41F

$$

MOZ001>008-011>017-020>025-030>033-038>040-044>046-053-054-260100-
...NORTHERN AND CENTRAL MISSOURI...

CITY           SKY/WX    TMP DP  RH WIND       PRES   REMARKS
ST. JOSEPH     CLOUDY    64  52  64 NW12      29.45R
6HR MIN TEMP:  64; 6HR MAX TEMP:  71;

MOSBY          CLOUDY    72  55  56 CALM      29.42S
WHITEMAN AFB   CLOUDY    74  60  60 W9        29.42R
6HR MIN TEMP:  74; 6HR MAX TEMP:  79;

CLINTON        CLOUDY    73  61  64 W6        29.44R
SEDALIA        PTSUNNY   78  59  51 W8        29.43R
6HR MIN TEMP:  78; 6HR MAX TEMP:  83;

WARSAW         NOT AVBL
CHILLICOTHE      N/A     72  55  55 CALM      29.43S
6HR MIN TEMP:  72; 6HR MAX TEMP:  76;

KIRKSVILLE     CLOUDY    75  54  47 W5        29.43R
6HR MIN TEMP:  74; 6HR MAX TEMP:  78;


$$

MOZ041-047>049-056>058-063>065-088>090-097-260100-
...EASTERN AND SOUTHERN MISSOURI...

CITY           SKY/WX    TMP DP  RH WIND       PRES   REMARKS
ST. LOUIS INTL MOCLDY    79  48  33 S20       29.48S
6HR MIN TEMP:  77; 6HR MAX TEMP:  82;

SPIRIT OF STL  CLEAR     78  50  37 S10G17    29.46S
COLUMBIA       CLOUDY    77  55  46 S13G23    29.44R
JEFFERSON CITY CLOUDY    81  54  39 S12       29.43R
ROLLA          MOCLDY    74  53  48 S20G29    29.47R
OSAGE BEACH    PTCLDY    79  56  45 S13       29.45R
SPRINGFIELD    PTSUNNY   75  59  57 S8        29.45R
BRANSON        PTSUNNY   75  59  57 S6        29.49R
JOPLIN         CLOUDY    75  60  59 S17G24    29.44S
WEST PLAINS    PTCLDY    73  53  49 S12       29.53R

$$

IAZ060-094-KSZ022-034>040-054-083-096-NEZ052-066-093-260100-
...KANSAS...SOUTHEAST NEBRASKA AND IOWA...

CITY           SKY/WX    TMP DP  RH WIND       PRES   REMARKS
TOPEKA         CLOUDY    63  53  70 N14       29.44R
6HR MIN TEMP:  63; 6HR MAX TEMP:  72;

MANHATTAN      LGT RAIN  56  45  66 N7        29.51R
EMPORIA        PTSUNNY   67  56  67 NW10      29.45R
CHANUTE        CLOUDY    72  62  71 SE7       29.40F
WICHITA        LGT RAIN  58  52  80 N14       29.48R
OMAHA          LGT RAIN  45  41  86 N16       29.54R FOG
LINCOLN        CLOUDY    45  41  86 N18       29.58R
FALLS CITY     CLOUDY    54  45  71 NW14G21   29.48R
LAMONI         CLOUDY    67  54  63 SW5       29.44R
DES MOINES     CLOUDY    70  51  51 SE5       29.43R

$$





USA.gov is the U.S. government's official web portal to all federal, state and local government web resources and services.